(7) Iris
ephemeris date magn radius delta ra dec elong phase
Today19 Apr 20259.81.840 AU2.792 AU02h42m+17°32'14.9°8.1°
Opposition27 Feb 20268.92.491 AU1.508 AU10h28m-00°05'171.0°3.6°
(7) Iris - 2025-04-19
astro.vanbuitenen.nl


 
-1 year
-1 month
-1 day
Now
+1 day
+1 month
+1 year

The interactive orbit chart above shows the body's path through the solar system and its position at the given date. Green and blue lines are shown perpendicular to the ecliptic plane: Green if the path is above the ecliptic plane, blue if it is below. (Left-click and drag to rotate the view; Right-click and drag to move the view; Use scroll wheel to zoom in our out.)

The orbital elements of Iris are:

            e (Eccentricity)                : 0.2299781
            a (Semimajor axis)              : 2.3863214
            i (Inclination)                 : 5.51956
            Ω (Longitude of ascending node) : 259.49837
            ω (Argument of perihelion)      : 145.52919
            M (Mean anomaly)                : 8.23526
            Epoch                           : 2025 May 05

            L (Longitude of perihelion)     : 225.15170
            B (Latitude of perihelion)      : 3.12071
            P (Orbital period in years)     : 3.69            
        

The light curve chart below shows the estimated development of the minor planet's magnitude.


The all-sky chart below shows the path of the minor planet over the same period as the light curve. The current position is marked yellow.





The following chart shows the path of the minor planet in the next few days. The field of view is optimized for (~10x50) binoculars and finderscopes. A more printer-friendly version of the same chart can be found below.




Ephemerides:
Date       Time       RA (2000)    DEC (2000)    delta   radius  elong  phase   PA    magn
2025-04-19 00:00 UT   02 42 29.0   +17 32 58     2.792    1.840   14.9    8.1    66    9.8 
2025-04-19 21:40 UT   02 44 46.0   +17 41 47     2.795    1.840   14.5    7.9    66    9.8 
2025-04-20 00:00 UT   02 45 00.8   +17 42 43     2.795    1.840   14.5    7.9    66    9.8 
2025-04-21 00:00 UT   02 47 32.8   +17 52 22     2.798    1.840   14.2    7.7    66    9.8 
2025-04-22 00:00 UT   02 50 05.2   +18 01 55     2.801    1.841   13.8    7.5    66    9.8 
2025-04-23 00:00 UT   02 52 37.7   +18 11 20     2.804    1.841   13.5    7.3    66    9.8 
2025-04-24 00:00 UT   02 55 10.5   +18 20 38     2.807    1.841   13.1    7.1    67    9.8 
2025-04-25 00:00 UT   02 57 43.5   +18 29 50     2.810    1.842   12.8    6.9    67    9.8 
2025-04-26 00:00 UT   03 00 16.8   +18 38 54     2.812    1.842   12.4    6.7    67    9.7 
2025-04-27 00:00 UT   03 02 50.3   +18 47 51     2.815    1.843   12.1    6.5    67    9.7 
2025-04-28 00:00 UT   03 05 24.0   +18 56 40     2.818    1.843   11.7    6.4    67    9.7 
2025-04-29 00:00 UT   03 07 58.0   +19 05 22     2.820    1.844   11.4    6.2    67    9.7 
2025-04-30 00:00 UT   03 10 32.1   +19 13 57     2.823    1.844   11.0    6.0    67    9.7 
2025-05-01 00:00 UT   03 13 06.5   +19 22 23     2.825    1.845   10.7    5.8    67    9.7 
2025-05-02 00:00 UT   03 15 41.0   +19 30 42     2.828    1.845   10.3    5.6    67    9.7 


    Terminology:
            
    delta:  distance between minor planet and earth in AU
    radius: distance between minor planet and sun in AU
    magn:   magnitude (brightness) estimate    
    ra:     right ascension in hours (24h = 360deg)
    dec:    declination in degrees
    elong:  elongation in degrees (angle sun-earth-minor planet)    
    phase:  phase angle in degrees (angle sun-minor planet-earth)        
    AU:     Astronomical Unit (mean distance between earth and sun: 149597870.7 km
    

Orbital elements provided by the MPC (Minor Planet Center).
Calculations by a modified version of AAPlus, a C# implementation of the AA+ project by PJ Naughter from the algorithms presented in the book "Astronomical Algorithms" by Jean Meeus.
NGC2000 dso catalog and star labels from VizieR as provided by the Strasbourg astronomical Data Center.
Tycho2 catalog from the ESO archive.